TimeEST,TemperatureF,Dew PointF,Humidity,Sea Level PressureIn,VisibilityMPH,Wind Direction,Wind SpeedMPH,Gust SpeedMPH,PrecipitationIn,Events,Conditions,WindDirDegrees,DateUTC
12:53 AM,21.9,15.1,75,30.29,10.0,NW,8.1,18.4,N/A,,Overcast,310,2012-12-30 05:53:00
1:53 AM,19.9,12.9,74,30.30,8.0,West,8.1,-,N/A,,Overcast,280,2012-12-30 06:53:00
2:43 AM,19.4,12.2,74,30.30,8.0,WNW,9.2,-,N/A,,Partly Cloudy,290,2012-12-30 07:43:00
2:53 AM,19.0,12.0,74,30.34,8.0,West,6.9,-,N/A,,Partly Cloudy,280,2012-12-30 07:53:00
3:53 AM,17.1,10.9,77,30.37,7.0,West,4.6,-,N/A,,Clear,280,2012-12-30 08:53:00
4:53 AM,12.9,9.0,84,30.38,6.0,Calm,Calm,-,N/A,,Clear,0,2012-12-30 09:53:00
5:53 AM,10.0,8.1,92,30.40,5.0,Calm,Calm,-,N/A,,Clear,0,2012-12-30 10:53:00
6:35 AM,8.6,6.8,92,30.37,1.2,Calm,Calm,-,N/A,,Clear,0,2012-12-30 11:35:00
6:42 AM,3.2,1.4,92,30.37,0.5,Calm,Calm,-,N/A,Fog,Light Freezing Fog,0,2012-12-30 11:42:00
6:48 AM,6.8,3.2,85,30.37,2.5,Calm,Calm,-,N/A,,Clear,0,2012-12-30 11:48:00
6:53 AM,8.1,5.0,87,30.42,3.0,Calm,Calm,-,N/A,,Clear,0,2012-12-30 11:53:00
7:23 AM,6.8,3.2,85,30.38,2.5,Calm,Calm,-,N/A,,Clear,0,2012-12-30 12:23:00
7:33 AM,8.6,3.2,79,30.38,6.0,Calm,Calm,-,N/A,,Haze,0,2012-12-30 12:33:00
7:53 AM,7.0,3.9,87,30.44,6.0,Calm,Calm,-,N/A,,Clear,0,2012-12-30 12:53:00
8:53 AM,7.0,3.9,87,30.45,4.0,Calm,Calm,-,N/A,,Clear,0,2012-12-30 13:53:00
9:00 AM,8.6,5.0,85,30.40,2.5,Calm,Calm,-,N/A,,Clear,0,2012-12-30 14:00:00
9:12 AM,12.2,10.4,92,30.41,3.0,Calm,Calm,-,N/A,,Clear,0,2012-12-30 14:12:00
9:53 AM,15.1,12.0,88,30.45,4.0,South,3.5,-,N/A,,Clear,180,2012-12-30 14:53:00
10:53 AM,19.9,16.0,85,30.47,6.0,SSW,4.6,-,N/A,,Clear,210,2012-12-30 15:53:00
11:53 AM,24.1,18.0,77,30.47,7.0,SW,9.2,-,N/A,,Clear,230,2012-12-30 16:53:00
12:53 PM,27.0,18.0,69,30.45,9.0,SW,10.4,-,N/A,,Clear,220,2012-12-30 17:53:00
1:53 PM,28.9,18.0,64,30.41,10.0,SSW,10.4,-,N/A,,Clear,200,2012-12-30 18:53:00
2:53 PM,30.0,18.0,61,30.39,10.0,South,10.4,-,N/A,,Clear,190,2012-12-30 19:53:00
3:53 PM,30.0,19.0,64,30.40,10.0,West,5.8,-,N/A,,Clear,260,2012-12-30 20:53:00
4:53 PM,28.9,18.0,64,30.40,10.0,SW,5.8,-,N/A,,Clear,220,2012-12-30 21:53:00
5:53 PM,28.0,18.0,66,30.40,10.0,SSW,6.9,-,N/A,,Clear,200,2012-12-30 22:53:00
6:53 PM,26.1,19.0,75,30.41,9.0,South,8.1,-,N/A,,Clear,190,2012-12-30 23:53:00
7:53 PM,24.1,18.0,77,30.40,8.0,South,4.6,-,N/A,,Clear,170,2012-12-31 00:53:00
8:53 PM,25.0,19.0,78,30.38,7.0,SSW,5.8,-,N/A,,Clear,200,2012-12-31 01:53:00
9:53 PM,25.0,19.9,81,30.36,6.0,SSW,9.2,-,N/A,,Haze,200,2012-12-31 02:53:00
10:53 PM,27.0,21.0,78,30.34,8.0,South,10.4,-,N/A,,Clear,190,2012-12-31 03:53:00
11:53 PM,26.1,19.9,78,30.32,8.0,SSE,3.5,-,N/A,,Clear,150,2012-12-31 04:53:00